This is the latest recevied weather packets stored in our database for station/object DH0DM-13. If no packets are shown the sender has not sent any weather packets the latest 10 day(s).
| Time | Temp. | Humidity | Pressure | Rain* | Wind** | Luminosity | Snow |
|---|---|---|---|---|---|---|---|
| 1787696323 | 14.44° C | 77% | 991.5 hPa | 0 mm | 0.89 m/s, 65° | - | - |
| 1787695722 | 14.44° C | 76% | 991.4 hPa | 0 mm | 1.79 m/s, 139° | - | - |
| 1787695121 | 15° C | 75% | 991.5 hPa | 0 mm | 6.26 m/s, 94° | - | - |
| 1787694520 | 15° C | 74% | 991.4 hPa | 0 mm | 6.26 m/s, 49° | - | - |
| 1787693920 | 15° C | 73% | 991.3 hPa | 0 mm | 6.26 m/s, 119° | - | - |
| 1787693319 | 15° C | 72% | 991.3 hPa | 0 mm | 6.26 m/s, 73° | - | - |
| 1787692718 | 15.56° C | 72% | 991.4 hPa | 0 mm | 6.26 m/s, 84° | - | - |
| 1787692117 | 15.56° C | 71% | 991.2 hPa | 0 mm | 3.58 m/s, 171° | - | - |
| 1787691516 | 15.56° C | 71% | 991.2 hPa | 0 mm | 2.68 m/s, 265° | - | - |
| 1787690915 | 15.56° C | 70% | 991.3 hPa | 0 mm | 5.36 m/s, 81° | - | - |
| 1787690314 | 15.56° C | 70% | 991.2 hPa | 0 mm | 5.81 m/s, 79° | - | - |
| 1787689713 | 15.56° C | 70% | 991.5 hPa | 0 mm | 9.39 m/s, 89° | - | - |
| 1787689112 | 16.11° C | 69% | 991.3 hPa | 0 mm | 9.83 m/s, 95° | - | - |
| 1787688512 | 16.11° C | 69% | 991.3 hPa | 0 mm | 10.73 m/s, 59° | - | - |
| 1787687911 | 16.11° C | 69% | 991.2 hPa | 0 mm | 8.49 m/s, 114° | - | - |
| 1787687308 | 16.11° C | 69% | 991.2 hPa | 0 mm | 4.92 m/s, 316° | - | - |
| 1787686707 | 16.11° C | 69% | 991.3 hPa | 0 mm | 4.92 m/s, 31° | - | - |
| 1787686107 | 16.11° C | 69% | 991.1 hPa | 0 mm | 6.71 m/s, 58° | - | - |
| 1787685506 | 16.67° C | 68% | 991.1 hPa | 0 mm | 6.71 m/s, 344° | - | - |
| 1787684905 | 16.67° C | 68% | 991.2 hPa | 0 mm | 1.34 m/s, 63° | - | - |
| 1787684304 | 16.67° C | 67% | 990.9 hPa | 0 mm | 4.92 m/s, 72° | - | - |
| 1787683703 | 17.22° C | 66% | 991.1 hPa | 0 mm | 11.62 m/s, 62° | - | - |
| 1787683102 | 17.22° C | 65% | 990.9 hPa | 0 mm | 4.02 m/s, 348° | - | - |
| 1787682501 | 17.22° C | 64% | 991.1 hPa | 0 mm | 8.94 m/s, 84° | - | - |
| 1787681900 | 17.78° C | 63% | 990.9 hPa | 0 mm | 9.83 m/s, 28° | - | - |
* Rain since midnight (hover to see other rain measurements)
** Current wind speed in m/s (hover to see current wind gust speed)